Regional Weather Roundup
Issued by NWS Northern Indiana

Home | Current Version | Previous Version | Text Only | Print | Product List | Glossary Off
Versions: 1 2 3 4 5 6 7 8 9 10 11 12 13 14 15 16 17 18 19 20 21 22 23 24 25 26 27 28 29 30 31 32 33 34 35 36 37 38 39 40 41 42 43 44 45 46 47 48 49 50

000
ASUS43 KIWX 220410
RWRIWX

KIWX WEATHER ROUNDUP
NATIONAL WEATHER SERVICE NORTHERN INDIANA
1200 AM EDT WED OCT 22 2014

NOTE: "FAIR" INDICATES FEW OR NO CLOUDS BELOW 12,000 FEET WITH NO
SIGNIFICANT WEATHER AND/OR OBSTRUCTIONS TO VISIBILITY.

* THESE STATIONS ARE NOT UNDER NWS QUALITY CONTROL. THEY ALSO MAY NOT
  REPORT WEATHER SUCH AS PRECIPITATION OR FOG.

INZ001>027-220500-
NORTHERN INDIANA

CITY           SKY/WX    TMP DP  RH WIND       PRES   REMARKS
GARY*          CLOUDY    50  38  63 E7        30.26S
VALPARAISO     CLEAR     39  35  86 NE5       30.26S
MICHIGAN CITY* CLEAR     37  36  93 CALM      30.27R
LAPORTE*       CLEAR     37  36  96 CALM      30.26S
KNOX*          CLEAR     38  34  87 NE6       30.25S
SOUTH BEND     CLEAR     38  35  89 CALM      30.26S
GOSHEN         CLEAR     38  36  92 CALM      30.24S
MONTICELLO*    CLOUDY    47  39  72 NE3       30.23S
LOGANSPORT*    PTCLDY    45  34  65 NE3       30.25R
ROCHESTER*     CLEAR     45  37  76 CALM      30.25S
WARSAW*        CLEAR     39  37  93 N3        30.24S
ANGOLA*        PTCLDY    39  21  48 N3        30.24S
FORT WAYNE     CLOUDY    46  35  65 NE12      30.24R
HUNTINGTON*    CLOUDY    44  37  77 CALM      30.23R
PERU/GRISSOM   PTCLDY    44  38  78 NE8       30.23S
MARION*        CLOUDY    45  35  66 NE6       30.23R

$$
INZ028>050-220500-
CENTRAL INDIANA

CITY           SKY/WX    TMP DP  RH WIND       PRES   REMARKS
LAFAYETTE      CLEAR     41  37  86 NE3       30.24R
KOKOMO*        CLOUDY    48  36  61 NE9       30.24R
MUNCIE*        CLOUDY    47  37  68 N9        30.21S
INDIANAPOLIS   MOCLDY    49  39  68 NE12      30.20R

$$
MIZ043>046-050>051-056>058-064>065-071>073-077>080-220500-
SOUTHWEST LOWER MICHIGAN

CITY           SKY/WX    TMP DP  RH WIND       PRES   REMARKS
BATTLE CREEK   CLEAR     36  31  82 NE3       30.26R
BENTON HARBOR  CLEAR     34  33  96 CALM      30.25S
COLDWATER*     CLEAR     39  36  89 N5        30.25S
HILLSDALE*     CLOUDY    41  38  87 N3        30.23S
HOLLAND        CLEAR     42  35  76 NE3       30.27R
GRAND RAPIDS   CLEAR     37  34  89 CALM      30.27R
KALAMAZOO      CLEAR     34  32  92 CALM      30.26R FOG
STURGIS*       FAIR      36  34  93 NE3       30.24S
THREE RIVERS*  FAIR      37  35  94 CALM      30.26R FOG

$$
OHZ001>008-015>018-024>025-220500-
NORTHWEST OHIO

CITY           SKY/WX    TMP DP  RH WIND       PRES   REMARKS
WAUSEON*       CLOUDY    45  37  76 N7        30.22S
DEFIANCE       CLOUDY    45  37  73 N5        30.23S
FINDLAY        CLOUDY    45  38  76 N9        30.19S
TOLEDO EXPRESS CLOUDY    44  36  73 N8        30.21S
TOLEDO METCALF CLOUDY    46  36  68 N10       30.21S
LIMA           CLOUDY    45  37  73 N9        30.19F

$$
AND FOR LAKE MICHIGAN COASTAL AND OPEN LAKE BUOY OBSERVATIONS

STATION/POSITION TEMP    WIND        PRES    VSBY  WAVE
                 AIR SEA DIR/SP/G                  HT/PER
                 (F)     (DEG/KT/KT) (MB)    (MI)  (FT/S)
CALUMET HARBOR    51      20/  7/  9 1023.1F
MICHIGAN CITY     44     110/  7/  7   N/A
SAINT JOSEPH      41                 1025.4R
SOUTH LAKE BUOY   50 54   30/ 12/ 14 1024.9S         5/ 6

$$
&&



USA.gov is the U.S. government's official web portal to all federal, state and local government web resources and services.